| time (UTC) | temp F | wind direction | speed knots | gust knots | rain 1hr in | rain 24hr in | rain mn in | humidity % | barometer mb |
| 20260505230411 | 61 | 221 | 0.9 | 7.0 | 0.00 | 0.14 | 0.14 | 85 | 998.7 |
| 20260505224207 | 61 | 190 | 0.9 | 4.3 | 0.00 | 0.14 | 0.14 | 87 | 998.3 |
| 20260505222706 | 61 | 176 | 0.9 | 4.3 | 0.00 | 0.14 | 0.14 | 88 | 998.4 |
| 20260505221208 | 61 | 0 | 0.9 | 5.2 | 0.00 | 0.14 | 0.14 | 89 | 998.9 |
| 20260505215705 | 60 | 223 | 0.0 | 4.3 | 0.01 | 0.14 | 0.14 | 90 | 999.3 |
| 20260505214214 | 60 | 196 | 0.0 | 3.5 | 0.05 | 0.14 | 0.14 | 90 | 999.5 |
| 20260505212706 | 59 | 86 | 0.0 | 1.7 | 0.09 | 0.14 | 0.14 | 90 | 999.2 |
| 20260505211209 | 59 | 84 | 0.0 | 4.3 | 0.12 | 0.14 | 0.14 | 89 | 998.8 |
| 20260505205702 | 59 | 42 | 0.9 | 17.4 | 0.13 | 0.13 | 0.13 | 88 | 999.2 |
| 20260505204210 | 60 | 40 | 5.2 | 18.2 | 0.09 | 0.09 | 0.09 | 85 | 999.6 |
| 20260505202703 | 62 | 306 | 0.9 | 8.7 | 0.05 | 0.05 | 0.05 | 82 | 999.4 |
| 20260505201858 | 67 | 23 | 2.6 | 10.4 | 0.02 | 0.02 | 0.02 | 69 | 998.2 |
| 20260505195701 | 71 | 235 | 0.0 | 7.8 | 0.00 | 0.00 | 0.00 | 50 | 997.0 |
| 20260505194200 | 71 | 132 | 1.7 | 7.8 | 0.00 | 0.00 | 0.00 | 49 | 996.7 |
| 20260505193355 | 71 | 223 | 1.7 | 9.6 | 0.00 | 0.00 | 0.00 | 48 | 997.2 |
| 20260505191156 | 72 | 194 | 4.3 | 10.4 | 0.00 | 0.00 | 0.00 | 47 | 997.1 |
| 20260505185652 | 71 | 237 | 5.2 | 16.5 | 0.00 | 0.00 | 0.00 | 48 | 997.6 |
| 20260505184153 | 72 | 218 | 4.3 | 19.1 | 0.00 | 0.00 | 0.00 | 48 | 997.8 |
| 20260505182652 | 73 | 234 | 4.3 | 13.9 | 0.00 | 0.00 | 0.00 | 46 | 998.0 |
| 20260505181201 | 73 | 232 | 4.3 | 11.3 | 0.00 | 0.00 | 0.00 | 46 | 998.4 |
| 20260505175646 | 72 | 202 | 4.3 | 10.4 | 0.00 | 0.00 | 0.00 | 48 | 998.8 |
| 20260505174146 | 71 | 96 | 2.6 | 9.6 | 0.00 | 0.00 | 0.00 | 53 | 999.0 |
| 20260505172642 | 68 | 224 | 2.6 | 9.6 | 0.00 | 0.00 | 0.00 | 55 | 999.3 |
| 20260505171148 | 67 | 171 | 4.3 | 14.8 | 0.00 | 0.00 | 0.00 | 59 | 999.9 |
| 20260505165640 | 69 | 207 | 5.2 | 15.6 | 0.00 | 0.00 | 0.00 | 51 | 999.8 |
| 20260505164140 | 70 | 196 | 4.3 | 13.0 | 0.00 | 0.00 | 0.00 | 46 | 999.5 |
| 20260505162641 | 71 | 218 | 5.2 | 15.6 | 0.00 | 0.00 | 0.00 | 45 | 999.5 |
| 20260505161142 | 71 | 218 | 7.0 | 16.5 | 0.00 | 0.00 | 0.00 | 42 | 999.5 |
| 20260505152640 | 72 | 198 | 2.6 | 12.2 | 0.00 | 0.00 | 0.00 | 42 | 999.8 |
| 20260505151145 | 70 | 240 | 2.6 | 0.9 | 0.00 | 0.00 | 0.00 | 45 | 1000.0 |
| 20260505122742 | 54 | 192 | 2.6 | 7.8 | 0.00 | 0.00 | 0.00 | 73 | 1001.9 |
| 20260505115738 | 51 | 217 | 2.6 | 6.1 | 0.00 | 0.00 | 0.00 | 79 | 1002.0 |
| 20260505114238 | 49 | 188 | 2.6 | 6.1 | 0.00 | 0.00 | 0.00 | 81 | 1002.5 |
| 20260505111238 | 47 | 0 | 0.9 | 3.5 | 0.00 | 0.00 | 0.00 | 87 | 1003.2 |
| 20260505101937 | 38 | 227 | 0.0 | 0.0 | 0.00 | 0.00 | 0.00 | 93 | 1003.2 |
| 20260505095734 | 38 | 227 | 0.0 | 0.0 | 0.00 | 0.00 | 0.00 | 92 | 1003.2 |
| 20260505094234 | 37 | 227 | 0.0 | 0.0 | 0.00 | 0.00 | 0.00 | 92 | 1003.3 |
| 20260505093433 | 37 | 227 | 0.0 | 0.0 | 0.00 | 0.00 | 0.00 | 91 | 1003.3 |
| 20260505091922 | 37 | 227 | 0.0 | 0.0 | 0.00 | 0.00 | 0.00 | 90 | 1003.2 |
| 20260505085735 | 38 | 227 | 0.0 | 0.0 | 0.00 | 0.00 | 0.00 | 90 | 1003.3 |
| 20260505084234 | 38 | 227 | 0.0 | 2.6 | 0.00 | 0.00 | 0.00 | 90 | 1003.5 |
| 20260505082737 | 38 | 227 | 0.0 | 0.9 | 0.00 | 0.00 | 0.00 | 90 | 1003.4 |
| 20260505081234 | 39 | 227 | 0.0 | 0.9 | 0.00 | 0.00 | 0.00 | 90 | 1003.7 |
| 20260505075734 | 39 | 227 | 0.0 | 0.9 | 0.00 | 0.00 | 0.00 | 88 | 1003.8 |
| 20260505074234 | 40 | 227 | 0.0 | 1.7 | 0.00 | 0.00 | 0.00 | 88 | 1003.7 |
| 20260505072733 | 40 | 227 | 0.0 | 1.7 | 0.00 | 0.00 | 0.00 | 88 | 1003.9 |
| 20260505071231 | 40 | 227 | 0.0 | 1.7 | 0.00 | 0.00 | 0.00 | 88 | 1003.9 |
| 20260505065730 | 40 | 228 | 0.0 | 0.9 | 0.00 | 0.00 | 0.00 | 89 | 1004.0 |
| 20260505064228 | 40 | 229 | 0.0 | 0.0 | 0.00 | 0.00 | 0.00 | 88 | 1004.2 |
| 20260505062726 | 40 | 228 | 0.0 | 1.7 | 0.00 | 0.00 | 0.00 | 87 | 1003.9 |
| 20260505061224 | 40 | 228 | 0.0 | 2.6 | 0.00 | 0.00 | 0.00 | 88 | 1004.2 |
| 20260505060413 | 40 | 228 | 0.9 | 2.6 | 0.00 | 0.00 | 0.00 | 88 | 1004.5 |
| 20260505054219 | 40 | 232 | 0.0 | 1.7 | 0.00 | 0.00 | 0.00 | 87 | 1004.5 |
| 20260505052716 | 40 | 233 | 0.0 | 0.9 | 0.00 | 0.00 | 0.00 | 87 | 1004.0 |
| 20260505051216 | 41 | 233 | 0.0 | 0.0 | 0.00 | 0.00 | 0.00 | 86 | 1004.1 |
| 20260505041213 | 43 | 233 | 0.0 | 2.6 | 0.00 | 0.00 | 0.00 | 82 | 1004.1 |
| 20260505035712 | 43 | 234 | 0.0 | 0.0 | 0.00 | 0.00 | 0.00 | 81 | 1004.1 |
| 20260505034215 | 44 | 234 | 0.0 | 0.0 | 0.00 | 0.00 | 0.00 | 79 | 1004.1 |
| 20260505033412 | 44 | 232 | 0.0 | 0.0 | 0.00 | 0.00 | 0.00 | 80 | 1004.0 |
| 20260505031212 | 43 | 232 | 0.0 | 0.0 | 0.00 | 0.00 | 0.00 | 82 | 1004.0 |
| 20260505025713 | 43 | 233 | 0.0 | 0.0 | 0.00 | 0.00 | 0.00 | 82 | 1004.1 |
| 20260505024208 | 42 | 233 | 0.0 | 0.0 | 0.00 | 0.00 | 0.00 | 82 | 1004.2 |
| 20260505022710 | 42 | 233 | 0.0 | 0.0 | 0.00 | 0.00 | 0.00 | 80 | 1004.0 |
| 20260505021216 | 43 | 232 | 0.0 | 0.0 | 0.00 | 0.00 | 0.00 | 79 | 1004.0 |
| 20260505020357 | 44 | 232 | 0.0 | 0.0 | 0.00 | 0.00 | 0.00 | 78 | 1004.0 |
| 20260505014202 | 45 | 232 | 0.0 | 0.0 | 0.00 | 0.00 | 0.00 | 75 | 1003.9 |
| 20260505013350 | 46 | 232 | 0.0 | 0.9 | 0.00 | 0.00 | 0.00 | 72 | 1003.8 |
| 20260505011200 | 47 | 232 | 0.0 | 4.3 | 0.00 | 0.00 | 0.00 | 71 | 1003.7 |
| 20260505005705 | 48 | 235 | 0.0 | 5.2 | 0.00 | 0.00 | 0.00 | 70 | 1003.5 |
| 20260505004201 | 49 | 263 | 0.9 | 6.1 | 0.00 | 0.00 | 0.00 | 68 | 1003.3 |
| 20260505002700 | 49 | 281 | 1.7 | 7.0 | 0.00 | 0.00 | 0.00 | 67 | 1002.9 |
| 20260504235702 | 50 | 223 | 1.7 | 7.8 | 0.00 | 0.00 | 0.00 | 63 | 1002.2 |
| 20260504234159 | 51 | 236 | 3.5 | 9.6 | 0.00 | 0.00 | 0.00 | 62 | 1002.0 |
| 20260504232656 | 52 | 213 | 1.7 | 7.0 | 0.00 | 0.00 | 0.00 | 60 | 1001.6 |
| 20260504231157 | 52 | 283 | 1.7 | 8.7 | 0.00 | 0.00 | 0.00 | 58 | 1001.5 |